Location: Cheching
(60.0667°N, 164.2167°W)
Time: 13:49:46
(UTC+00:00)

NOAA 19 - Pass Details

Date: 25 January 2021
Orbit: 840 x 862 km, 99.2° (Epoch: 01 March)

Event Time Altitude Azimuth Distance (km) Brightness Sun altitude
Rises 18:15:00 0° 19° (NNE) 3,432 8.3 -8.4°
Reaches altitude 10° 18:17:24 10° 20° (NNE) 2,489 7.6 -8.1°
Maximum altitude 18:22:56 81° 108° (ESE) 865 5.4 -7.4°
Drops below altitude 10° 18:28:24 10° 197° (SSW) 2,461 7.8 -6.8°
Sets 18:30:45 0° 198° (SSW) 3,391 8.5 -6.6°
